Miscellaneous Local Product
Issued by NWS Hastings, NE

Home | Current Version | Previous Version | Graphics & Text | Print | Product List | Glossary On
Versions: 1 2 3 4 5 6 7 8 9 10 11 12 13 14 15 16 17 18 19 20 21 22 23 24 25 26 27 28 29 30 31 32 33 34 35 36 37 38 39 40 41 42 43 44 45 46 47 48 49 50
000
AXUS43 KGID 221902
MISGRI

GID CWA HOURLY WEATHER ROUNDUP
NATIONAL WEATHER SERVICE HASTINGS NE
200 PM CDT FRI JUL 22 2016

NOTE: "FAIR" INDICATES FEW OR NO CLOUDS BELOW 12,000 FEET WITH NO
SIGNIFICANT WEATHER AND/OR OBSTRUCTIONS TO VISIBILITY.

...SOUTH CENTRAL NEBRASKA...

CITY           SKY/WX    TMP DP  RH WIND       PRES   REMARKS
GRAND ISLAND   SUNNY     95  76  53 VRB5      29.98R HX 108
HASTINGS       CLOUDY    89  73  59 W3        30.00R HX  97
KEARNEY        MOSUNNY   95  77  55 S10       30.01F HX 109
ORD            SUNNY     95  74  50 NE8       29.97F HX 105
YORK           SUNNY     91  79  66 S8        29.97R HX 107
AURORA         MOSUNNY   94  81  66 S10       29.98R HX 114
LEXINGTON      PTSUNNY   94  76  56 S8        30.02S HX 107
HOLDREGE       CLOUDY    87  72  61 E7        30.01F HX  93
HEBRON         PTSUNNY   87  71  58 W10G16    30.00R HX  92

...NEBRASKA PANHANDLE...

CITY           SKY/WX    TMP DP  RH WIND       PRES   REMARKS
CHADRON        MOSUNNY  101  44  14 SE21      30.03F HX  97
ALLIANCE       CLOUDY    93  58  30 SE13      30.10F HX  92
SCOTTSBLUFF    MOSUNNY   94  64  37 SE7       30.11F HX  95
SIDNEY         SUNNY     96  56  26 SE13G22   30.16F HX  94

...WESTERN AND NORTH CENTRAL NEBRASKA...

CITY           SKY/WX    TMP DP  RH WIND       PRES   REMARKS
VALENTINE      CLOUDY    96  64  34 SE12      30.04F HX  98
AINSWORTH      CLOUDY    90  75  61 E7        30.05F HX 100
ONEILL         MOSUNNY   94  74  52 NE9       30.00F HX 103
BROKEN BOW     SUNNY     92  77  61 NE10      30.02F HX 105
IMPERIAL       SUNNY     96  60  30 E8        30.07F HX  96
NORTH PLATTE   SUNNY     96  75  50 SE7       30.03F HX 108
MCCOOK         SUNNY     98  70  40 VRB7      30.02F HX 105

...EASTERN NEBRASKA...

CITY           SKY/WX    TMP DP  RH WIND       PRES   REMARKS
NORFOLK        MOSUNNY   91  76  61 E9        29.96R HX 103
SO SIOUX CITY  SUNNY     93  77  59 SE8       29.95S HX 107
TEKAMAH        SUNNY     91  75  59 SE14      29.94F HX 101
COLUMBUS       SUNNY     90  73  58 S7        29.96S HX  98
ALBION         SUNNY     91  77  64 E7        29.97F HX 103
OMAHA EPPLEY   MOSUNNY   92  76  59 SE17G24   29.94F HX 104
OFFUTT AFB     MOSUNNY   91  78  66 SE17      29.95F HX 106
MILLARD        MOSUNNY   91  77  63 SE14G20   29.94F HX 105
LINCOLN        SUNNY     94  74  52 S15       29.95F HX 104
NEBRASKA CITY  SUNNY     90  80  71 S13G22    29.97S HX 106
BEATRICE       MOSUNNY   96  73  47 S10       29.96S HX 104
FALLS CITY     SUNNY     92  78  63 SE23G29   29.96F HX 107

...NORTHERN KANSAS...

CITY           SKY/WX    TMP DP  RH WIND       PRES   REMARKS
GOODLAND       CLOUDY    96  56  26 CALM      30.09F HX  94
HILL CITY      MOSUNNY   99  67  35 VRB3      29.98F HX 103
NORTON         CLEAR     93  61  33 NE6       30.00F HX  93
SMITH CENTER   PTSUNNY   84  73  70 SE12      29.98F HX  91
BELOIT         SUNNY     97  68  38 W5        29.96R HX 101
HAYS           MOSUNNY  104  64  27 W14       29.97F HX 107
RUSSELL        SUNNY    103  64  28 SW16G22   29.95F HX 106
CONCORDIA      CLOUDY    94  71  47 S8        29.96S HX 101
SALINA         SUNNY    104  68  31 S18       29.95F HX 110
TOPEKA         SUNNY     98  71  41 SE14G23   29.98F HX 106



USA.gov is the U.S. government's official web portal to all federal, state and local government web resources and services.